Tracking 29892 objects as of 21-Nov-2024
HD Live streaming from Space Station
objects crossing your sky now

STARLINK-4082

Track STARLINK-4082 now!
10-day predictions
STARLINK-4082 is classified as:


NORAD ID: 52658
Int'l Code: 2022-053C
Perigee: 546.0 km
Apogee: 547.8 km
Inclination: 53.2 °
Period: 95.4 minutes
Semi major axis: 6917 km
RCS: Unknown
Launch date: May 18, 2022
Source: United States (US)
Launch site: AIR FORCE EASTERN TEST RANGE (AFETR)
Your satellite tracking list
Your tracking list is empty




NASA's NSSDC Master Catalog

Two Line Element Set (TLE):
1 52658U 22053C   24325.87967476  .00000918  00000-0  75760-4 0  9995
2 52658  53.2163 121.1356 0001327  98.8949 261.2193 15.08842274139702
Source of the keplerian elements: AFSPC